STARLINK-36113, 66982

Orbit data source: Space-Track

STARLINK-36113, 66982 is a payload satellite owned by SpaceX/Seattle (US) in LEO that was launched on Mon, 08 Dec 2025 UTC via an FALCON 9 launch vehicle from the Air Force Eastern Test Range (AFETR). Payload-class satellites include a variety of spacecraft equipped with specific instruments for various scientific and technological missions. These include communications satellites like Starlink; space stations such as the ISS; scientific satellites like the Hubble; Earth observation satellites from companies like Planet Labs, Umbra, and HawkEye 360; GPS; miniature CubeSats for education and research; and military/defense satellites.

Loading next visibility...
Identifier
66982, 2025-288Z
Orbit
LEO
Country
Flag of USUS
Related business
Manufacturer
SpaceX/Seattle
Mission
Operational Commercial Communications
Bus & Motor
STARLINK V2MO, Unknown motor
Mass
575 kg wet, ~530 kg dry
Launch date (UTC)
2025-12-08 (5 months ago)
Launch vehicle
FALCON 9
Launch site
Air Force Eastern Test Range (AFETR)
Object type
Payload
Rocket body
Debris
Shape & HBR
Box + 2 Pan, 17.7 m
Radar Cross Section
36.964 m²

Expand to show TLE details & history
Last TLE update: 11 hours ago

TLE from 11 hours ago
0 STARLINK-36113
1 66982U 25288Z   26130.10062331 -.00012881  00000-0 -45965-3 0  9998
2 66982  43.0024  36.2649 0001451 267.7472  92.3214 15.27561237 24682
Epoch: 2026-05-10T02:24Z
TLE epoch observation values (Epoch: 2026-05-10T02:24:53.853Z)
Latitude
-0.00001°
Longitude
132.13195°
Altitude
482.921 km
Speed
7.626 km/s
True Right ascension
02h 25m 03s
True Declination
0° 00' 00"
Sunlit
Object was in daylight at epoch
Visualization orbit readout
Latitude
Unknown
Longitude
Unknown
Altitude
Unknown
Speed
Unknown
Apparent Right ascension
Unknown
Apparent Declination
Unknown
Sunlit
N/A
Visualization observer readout
Local Sidereal Time
21:22:21
Azimuth
Unknown
Elevation
Unknown
Doppler factor
Unknown
Orbital elements
Apogee altitude
486.046 km
Perigee altitude
484.054 km
Semi-major axis
6,863.187 km
Eccentricity
0.00015
Inclination
43.0024°
RAAN
36.2649°
Arg. of periapsis
267.7472°
True anomaly
92.33801°
Mean anomaly
92.3214°
Eccentric anomaly
92.32971°
Mean motion
3.81728 °/min
Orbital period
94.31 mins
BSTAR
-0.00045965
Loading maneuver chart data...
Computing Atmospheric mass density...
Loading historical data...
Loading historical data...
Loading historical data...
Loading historical data...
Loading historical data...
Loading historical data...
Loading historical data...

Documentation

Showing up to 5 results
|